This is the latest recevied weather packets stored in our database for station/object CE3TL-WX. If no packets are shown the sender has not sent any weather packets the latest 10 day(s).
| Time | Temp. | Humidity | Pressure | Rain* | Wind** | Luminosity | Snow |
|---|---|---|---|---|---|---|---|
| 1777892519 | 12.22° C | 51% | 1023.7 hPa | - | - | - | - |
| 1777891986 | 12.22° C | 51% | 1023.7 hPa | - | - | - | - |
| 1777891451 | 12.22° C | 52% | 1023.8 hPa | - | - | - | - |
| 1777890918 | 12.22° C | 52% | 1023.8 hPa | - | - | - | - |
| 1777890385 | 12.22° C | 51% | 1023.6 hPa | - | - | - | - |
| 1777889851 | 12.22° C | 50% | 1023.6 hPa | - | - | - | - |
| 1777889316 | 12.22° C | 50% | 1023.6 hPa | - | - | - | - |
| 1777888782 | 12.78° C | 49% | 1023.5 hPa | - | - | - | - |
| 1777888249 | 12.78° C | 50% | 1023.6 hPa | - | - | - | - |
| 1777887716 | 12.22° C | 50% | 1023.3 hPa | - | - | - | - |
| 1777887181 | 12.22° C | 51% | 1023.4 hPa | - | - | - | - |
| 1777886648 | 12.22° C | 50% | 1023.4 hPa | - | - | - | - |
| 1777886114 | 12.22° C | 50% | 1023.4 hPa | - | - | - | - |
| 1777885580 | 12.22° C | 50% | 1023.5 hPa | - | - | - | - |
| 1777885047 | 12.22° C | 50% | 1023.3 hPa | - | - | - | - |
| 1777884513 | 12.22° C | 50% | 1023.3 hPa | - | - | - | - |
| 1777883980 | 11.67° C | 51% | 1023.2 hPa | - | - | - | - |
| 1777883446 | 11.67° C | 51% | 1023.2 hPa | - | - | - | - |
| 1777882911 | 11.67° C | 51% | 1023.3 hPa | - | - | - | - |
| 1777882377 | 11.67° C | 51% | 1023.7 hPa | - | - | - | - |
| 1777881844 | 11.67° C | 51% | 1023.8 hPa | - | - | - | - |
| 1777881310 | 11.67° C | 51% | 1023.7 hPa | - | - | - | - |
| 1777880776 | 11.11° C | 52% | 1023.9 hPa | - | - | - | - |
| 1777880243 | 11.67° C | 51% | 1023.9 hPa | - | - | - | - |
| 1777879709 | 11.67° C | 51% | 1024 hPa | - | - | - | - |
* Rain since midnight (hover to see other rain measurements)
** Current wind speed in m/s (hover to see current wind gust speed)